When you browse on this site, cookies collect data to enhance your experience and personalize the content and advertising you see.
Visit our Privacy Policy to learn more. By continuing to use the site, you agree to this use of cookies and data.

Hourly Weather Vanadzor

Today, 26 September, Saturday

Time Temperature Precipitation Wind Pressure Humidity
00:00 +14°C° 0.3 mm 1 mps 635 mmHg 94%
01:00 +14°C° 0 mm 1 mps 634 mmHg 94%
02:00 +13°C° 0 mm 1 mps 634 mmHg 94%
03:00 +13°C° 0 mm 1 mps 633 mmHg 94%
04:00 +13°C° 0 mm 1 mps 633 mmHg 94%
05:00 +13°C° 0 mm 1 mps 633 mmHg 93%
06:00 +12°C° 0 mm 1 mps 633 mmHg 93%
07:00 +14°C° 0.1 mm 1 mps 634 mmHg 86%
08:00 +16°C° 0.1 mm 1 mps 634 mmHg 79%
09:00 +19°C° 0.1 mm 1 mps 635 mmHg 72%
10:00 +19°C° 0.5 mm 1 mps 635 mmHg 69%
11:00 +20°C° 0.5 mm 1 mps 635 mmHg 65%
12:00 +20°C° 0.5 mm 2 mps 635 mmHg 62%
13:00 +20°C° 0.7 mm 2 mps 635 mmHg 61%
14:00 +20°C° 0.7 mm 2 mps 635 mmHg 60%
15:00 +20°C° 0.7 mm 2 mps 635 mmHg 60%
16:00 +19°C° 0.5 mm 2 mps 634 mmHg 68%
17:00 +18°C° 0.5 mm 1 mps 634 mmHg 77%
18:00 +15°C° 0.5 mm 1 mps 633 mmHg 85%
19:00 +15°C° 1.3 mm 1 mps 634 mmHg 88%
20:00 +15°C° 1.3 mm 1 mps 634 mmHg 91%
21:00 +14°C° 1.3 mm 2 mps 635 mmHg 94%
22:00 +14°C° 0.6 mm 1 mps 635 mmHg 93%
23:00 +14°C° 0.6 mm 1 mps 635 mmHg 92%

Tomorrow, 27 September, Sunday

Time Temperature Precipitation Wind Pressure Humidity
00:00 +12°C° 0.6 mm 0 mps 635 mmHg 91%
01:00 +12°C° 0 mm 0 mps 635 mmHg 91%
02:00 +12°C° 0 mm 0 mps 635 mmHg 90%
03:00 +12°C° 0 mm 0 mps 635 mmHg 90%
04:00 +11°C° 0 mm 0 mps 635 mmHg 90%
05:00 +11°C° 0 mm 0 mps 635 mmHg 90%
06:00 +11°C° 0 mm 0 mps 635 mmHg 90%
07:00 +13°C° 0 mm 0 mps 636 mmHg 82%
08:00 +15°C° 0 mm 0 mps 637 mmHg 75%
09:00 +18°C° 0 mm 0 mps 638 mmHg 67%
10:00 +21°C° 0.1 mm 1 mps 638 mmHg 63%
11:00 +22°C° 0.1 mm 1 mps 638 mmHg 59%
12:00 +23°C° 0.1 mm 2 mps 639 mmHg 56%
13:00 +21°C° 0.3 mm 2 mps 638 mmHg 56%
14:00 +21°C° 0.3 mm 2 mps 638 mmHg 56%
15:00 +21°C° 0.3 mm 2 mps 638 mmHg 57%
16:00 +20°C° 0.2 mm 2 mps 638 mmHg 65%
17:00 +19°C° 0.2 mm 1 mps 637 mmHg 73%
18:00 +16°C° 0.2 mm 1 mps 637 mmHg 82%
19:00 +15°C° 0 mm 1 mps 638 mmHg 84%
20:00 +15°C° 0 mm 1 mps 638 mmHg 86%
21:00 +14°C° 0 mm 1 mps 638 mmHg 88%
22:00 +14°C° 0 mm 1 mps 639 mmHg 88%
23:00 +13°C° 0 mm 1 mps 639 mmHg 88%

Day after tomorrow, 28 September, Monday

Time Temperature Precipitation Wind Pressure Humidity
00:00 +13°C° 0 mm 1 mps 639 mmHg 89%
01:00 +13°C° 0 mm 1 mps 639 mmHg 89%
02:00 +12°C° 0 mm 1 mps 639 mmHg 90%
03:00 +12°C° 0 mm 1 mps 639 mmHg 90%
04:00 +11°C° 0 mm 0 mps 639 mmHg 90%
05:00 +10°C° 0 mm 0 mps 639 mmHg 90%
06:00 +10°C° 0 mm 0 mps 639 mmHg 90%
07:00 +13°C° 0 mm 1 mps 640 mmHg 83%
08:00 +15°C° 0 mm 1 mps 641 mmHg 76%
09:00 +17°C° 0 mm 2 mps 641 mmHg 68%
10:00 +18°C° 0 mm 2 mps 641 mmHg 65%
11:00 +19°C° 0 mm 2 mps 641 mmHg 62%
12:00 +20°C° 0 mm 3 mps 641 mmHg 58%
13:00 +20°C° 0 mm 3 mps 641 mmHg 59%
14:00 +20°C° 0 mm 3 mps 641 mmHg 59%
15:00 +20°C° 0 mm 2 mps 641 mmHg 60%
16:00 +18°C° 0 mm 2 mps 640 mmHg 67%
17:00 +16°C° 0 mm 2 mps 640 mmHg 75%
18:00 +14°C° 0 mm 2 mps 639 mmHg 82%
19:00 +13°C° 0 mm 1 mps 639 mmHg 85%
20:00 +12°C° 0 mm 1 mps 639 mmHg 88%
21:00 +11°C° 0 mm 1 mps 639 mmHg 90%
22:00 +11°C° 0 mm 1 mps 639 mmHg 91%
23:00 +11°C° 0 mm 1 mps 639 mmHg 91%

29 September, Tuesday

Time Temperature Precipitation Wind Pressure Humidity
00:00 +10°C° 0 mm 1 mps 639 mmHg 92%
01:00 +10°C° 0 mm 1 mps 639 mmHg 92%
02:00 +10°C° 0 mm 1 mps 639 mmHg 93%
03:00 +9°C° 0 mm 1 mps 639 mmHg 93%
04:00 +9°C° 0 mm 1 mps 639 mmHg 93%
05:00 +9°C° 0 mm 1 mps 639 mmHg 93%
06:00 +9°C° 0 mm 1 mps 639 mmHg 92%
07:00 +11°C° 0 mm 1 mps 639 mmHg 84%
08:00 +13°C° 0 mm 1 mps 640 mmHg 76%
09:00 +15°C° 0 mm 1 mps 640 mmHg 68%
10:00 +16°C° 0 mm 2 mps 640 mmHg 63%
11:00 +17°C° 0 mm 2 mps 640 mmHg 59%
12:00 +19°C° 0 mm 2 mps 640 mmHg 55%
13:00 +19°C° 0 mm 2 mps 640 mmHg 55%
14:00 +19°C° 0 mm 2 mps 640 mmHg 56%
15:00 +19°C° 0 mm 2 mps 639 mmHg 57%
16:00 +17°C° 0 mm 2 mps 639 mmHg 65%
17:00 +15°C° 0 mm 2 mps 638 mmHg 73%
18:00 +13°C° 0 mm 1 mps 637 mmHg 81%
19:00 +12°C° 0 mm 1 mps 637 mmHg 83%
20:00 +11°C° 0 mm 1 mps 637 mmHg 86%
21:00 +10°C° 0 mm 1 mps 637 mmHg 89%
22:00 +10°C° 0 mm 1 mps 637 mmHg 89%
23:00 +10°C° 0 mm 1 mps 636 mmHg 90%

30 September, Wednesday

Time Temperature Precipitation Wind Pressure Humidity
00:00 +9°C° 0 mm 1 mps 636 mmHg 90%
01:00 +9°C° 0 mm 1 mps 636 mmHg 91%
02:00 +9°C° 0 mm 1 mps 635 mmHg 91%
03:00 +8°C° 0 mm 1 mps 635 mmHg 92%
04:00 +8°C° 0 mm 1 mps 635 mmHg 92%
05:00 +8°C° 0 mm 1 mps 635 mmHg 91%
06:00 +8°C° 0 mm 1 mps 635 mmHg 91%
07:00 +10°C° 0 mm 1 mps 635 mmHg 84%
08:00 +12°C° 0 mm 1 mps 635 mmHg 77%
09:00 +14°C° 0 mm 1 mps 636 mmHg 70%
10:00 +15°C° 0 mm 2 mps 636 mmHg 66%
11:00 +17°C° 0 mm 2 mps 636 mmHg 62%
12:00 +18°C° 0 mm 2 mps 636 mmHg 59%
13:00 +18°C° 0 mm 2 mps 635 mmHg 60%
14:00 +18°C° 0 mm 2 mps 635 mmHg 61%
15:00 +18°C° 0 mm 2 mps 635 mmHg 63%
16:00 +16°C° 0 mm 2 mps 634 mmHg 71%
17:00 +14°C° 0 mm 2 mps 633 mmHg 79%
18:00 +12°C° 0 mm 2 mps 633 mmHg 86%
19:00 +12°C° 0 mm 2 mps 633 mmHg 87%
20:00 +12°C° 0 mm 2 mps 634 mmHg 88%
21:00 +12°C° 0 mm 1 mps 634 mmHg 88%
22:00 +12°C° 0 mm 1 mps 634 mmHg 88%
23:00 +11°C° 0 mm 1 mps 634 mmHg 88%

1 October, Thursday

Time Temperature Precipitation Wind Pressure Humidity
00:00 +11°C° 0 mm 1 mps 634 mmHg 88%
01:00 +11°C° 0 mm 1 mps 634 mmHg 90%
02:00 +11°C° 0 mm 1 mps 634 mmHg 91%
03:00 +9°C° 0 mm 2 mps 633 mmHg 92%
04:00 +10°C° 0 mm 1 mps 634 mmHg 91%
05:00 +10°C° 0 mm 1 mps 634 mmHg 91%
06:00 +10°C° 0 mm 1 mps 634 mmHg 90%
07:00 +11°C° 0 mm 1 mps 634 mmHg 85%
08:00 +13°C° 0 mm 1 mps 635 mmHg 80%
09:00 +14°C° 0 mm 1 mps 635 mmHg 74%
10:00 +15°C° 0 mm 1 mps 635 mmHg 69%
11:00 +16°C° 0 mm 2 mps 635 mmHg 65%
12:00 +18°C° 0 mm 2 mps 635 mmHg 60%
13:00 +17°C° 0.1 mm 2 mps 635 mmHg 63%
14:00 +17°C° 0.1 mm 2 mps 635 mmHg 65%
15:00 +17°C° 0.1 mm 2 mps 634 mmHg 68%
16:00 +16°C° 0.1 mm 2 mps 634 mmHg 74%
17:00 +14°C° 0.1 mm 2 mps 634 mmHg 80%
18:00 +13°C° 0.1 mm 1 mps 634 mmHg 86%
19:00 +12°C° 0.1 mm 1 mps 634 mmHg 88%
20:00 +12°C° 0.1 mm 1 mps 635 mmHg 90%
21:00 +11°C° 0.1 mm 1 mps 635 mmHg 92%
22:00 +11°C° 0.2 mm 1 mps 635 mmHg 93%
23:00 +11°C° 0.2 mm 1 mps 635 mmHg 93%
Show more